sat.trackr.live / text

‹ back to catalog

STARLINK-11502 [DTC]

NORAD 62474 · 2024-254N

PAYLOAD ACTIVE UNKNOWN

§ Identity

Operator
Country
US
Launch date
2024-12-31
Launch site
AFETR
Launch vehicle
Mass (kg)
RCS (m²)

Purposes: comms

External: N2YO · Heavens-Above · Gunter

§ Orbital elements

Epoch: 2026-09-20T21:37:47.396064Z

Period
91.67 min
Inclination
43.0004°
Eccentricity
0.0001538
Mean motion
15.70847445 rev/d
Perigee alt
355.4 km
Apogee alt
357.5 km
Semi-major
6,734.6 km
B*
9.1668e-4
RAAN
126.2445°
Arg perigee
255.7264°
Mean anomaly
104.3433°
Rev number
10,010

§ Raw data

STARLINK-11502 [DTC]1 62474U 24254N   26263.90124301  .00118908  00000+0  91668-3 0  99982 62474  43.0004 126.2445 0001538 255.7264 104.3433 15.70847445100103

JSON: /api/v1/satellites/62474 · /tle

For live sub-satellite position, see the globe view (requires WebGL).

§ Visibility from observer

Set your observer location to see the next 7 days of passes ≥ 10°. The values pass through the URL so the page stays shareable.

No JS? Fill the form by hand. The geolocation button needs JavaScript.